Regional Weather Roundup
Issued by NWS

Home | Current Version | Previous Version | Text Only | Print | Product List | Glossary On
Versions: 1 2 3 4 5 6 7 8 9 10 11 12 13 14 15 16 17 18 19 20 21 22 23 24 25 26 27
000
ASUS45 KCYS 280510
RWRWY

WYOMING REGIONAL WEATHER ROUNDUP
NATIONAL WEATHER SERVICE CHEYENNE WY
1100 PM MDT SAT MAY 27 2017

NOTE:  "FAIR" INDICATES FEW OR NO CLOUDS BELOW 12,000 FEET
WITH NO SIGNIFICANT WEATHER AND/OR OBSTRUCTIONS TO VISIBILITY.

WYZ001-280600-
YELLOWSTONE NATIONAL PARK

CITY           SKY/WX    TMP DP  RH WIND       PRES   REMARKS
LK YELLOWSTONE   N/A     33  31  92 CALM      30.39R
W YELLOWSTONE  NOT AVBL

$$
WYZ002>013-054>058-071-098>099-280600-
NORTHERN WYOMING

CITY           SKY/WX    TMP DP  RH WIND       PRES   REMARKS
JACKSON        FAIR      37  34  87 CALM      30.33R
CODY           MOCLDY    52  36  54 S5        30.24R
GREYBULL       FAIR      56  34  43 E5        30.16R
WORLAND          N/A     47  38  71 S8        30.17R
SHERIDAN       MOCLDY    59  40  49 W16       30.15R
BUFFALO        MOCLDY    53  38  56 W10       30.19S
GILLETTE       FAIR      47  40  76 W10       30.13S
HULETT         FAIR      48  41  76 S9        30.12S
NEWCASTLE      FAIR      52  39  62 NE5       30.13F

$$
WYZ014>020-022>026-101>103-280600-
CENTRAL WYOMING

CITY           SKY/WX    TMP DP  RH WIND       PRES   REMARKS
BIG PINEY      FAIR      39  30  70 N13       30.34R WCI  31
PINEDALE       FAIR      37  32  81 NW5       30.34S WCI  34
DUBOIS         FAIR      41  30  65 NW12      30.33R
LANDER         FAIR      49  33  54 S6        30.25R
RIVERTON       FAIR      50  33  52 SW8       30.25R
CASPER         FAIR      43  38  82 SW8       30.23R
DOUGLAS        FAIR      44  39  82 N6        30.21R

$$
WYZ021-027>030-104>119-280600-
SOUTHERN WYOMING

CITY           SKY/WX    TMP DP  RH WIND       PRES   REMARKS
EVANSTON       FAIR      48  32  53 N5        30.34R
KEMMERER         N/A     43  30  61 N10       30.35S
ROCK SPRINGS   FAIR      48  28  46 E9        30.31R
DIXON            N/A     41  31  67 E6        30.33S
RAWLINS        FAIR      39  31  72 NW7       30.31R WCI  34
SARATOGA       FAIR      37  32  81 SE3       30.33R
LARAMIE        FAIR      36  29  75 W7        30.29S WCI  30
CHEYENNE       FAIR      42  35  76 W10       30.25S
TORRINGTON     FAIR      51  39  63 NW7       30.15R
PINE BLUFFS    FAIR      39  37  93 MISG      30.22R

$$




USA.gov is the U.S. government's official web portal to all federal, state and local government web resources and services.